Content
SEND FEEDBACK

Daily
Averages
Monthly
Summary
United States of America

DINOSAUR NATIONAL MONUMENT, UTAH


Home > North America > United States > Utah
Elevation: 1469 meters     Latitude: 40 26N     Longitude: 109 18W

WEATHER
 
SELECT A DAY
Number of Records: 166,431;   Date Range: 1/1/95 - 7/26/14
 
SHARE

PRINT THIS DATA

[ ← Previous Day ]
WEATHER ALMANAC - 31 JANUARY, 2013
[ Next Day → ]
[ °F ]   °C
Weather ElementAverageHighLow
Temperature-5.6 °C2.2 °C (12:53 pm)-12.8 °C (3:53 am)
Dewpoint-9.8 °C-6.1 °C (2:53 pm)-14.4 °C (3:53 am)
Humidity73.6 %88 % (3:53 am)50 % (12:53 pm)
Barometer1028.8 hPa1031.2 hPa (7:53 pm)1025.7 hPa (1:53 am)
Wind Speed4.3 km/h11.1 km/h (2:53 am)
Weather ElementAverage
Visibility16.1 km
Wind DirectionSE (131.7 °)

Weather ElementTotal
Precipitation---
Heating Degree Days23.6 (Base 18.3)
Averaged from 23 records on 31 January, 2013
WEATHER CONDITIONS BREAKOUT
WIND DIRECTION BREAKOUT
WEATHER BY HOUR - 31 JANUARY, 2013
[ °F ]   °C
Local TimeTemperatureDewpointHumidityBarometerVisibilityWind DirectionWind SpeedGust SpeedPrecipitationEventsConditions
1:53 AM-10 °C-12.2 °C84 %1025.7 hPa16.1 kmNNW (330°)5.6 km/hClear
2:53 AM-10.6 °C-12.8 °C84 %1026.1 hPa16.1 kmWest (280°)11.1 km/hClear
3:53 AM-12.8 °C-14.4 °C88 %1026.4 hPa16.1 kmCalmClear
4:53 AM-12.2 °C-14.4 °C84 %1027.8 hPa16.1 kmNW (310°)9.3 km/hClear
5:53 AM-11.7 °C-13.9 °C84 %1028.1 hPa16.1 kmWest (280°)11.1 km/hClear
6:53 AM-11.1 °C-13.3 °C84 %1029.5 hPa16.1 kmWest (270°)11.1 km/hClear
7:53 AM-11.1 °C-13.9 °C80 %1030.5 hPa16.1 kmWNW (300°)9.3 km/hClear
8:53 AM-6.7 °C-10 °C78 %1030.1 hPa16.1 kmWest (280°)7.4 km/hClear
9:53 AM-4.4 °C-8.9 °C71 %1030.5 hPa16.1 kmCalmClear
10:53 AM-1.1 °C-7.8 °C61 %1030.5 hPa16.1 kmCalmClear
11:53 AM0.6 °C-7.2 °C56 %1029.5 hPa16.1 kmEast (90°)5.6 km/hClear
12:53 PM2.2 °C-7.2 °C50 %1028.1 hPa16.1 kmCalmClear
1:53 PM2.2 °C-6.7 °C52 %1027.8 hPa16.1 kmNorth (10°)7.4 km/hClear
2:53 PM1.1 °C-6.1 °C59 %1027.8 hPa16.1 kmCalmScattered Clouds
3:53 PM1.1 °C-6.1 °C59 %1028.1 hPa16.1 kmCalmClear
4:53 PM1.1 °C-6.7 °C56 %1028.1 hPa16.1 kmCalmClear
5:53 PM-2.2 °C-7.2 °C69 %1029.1 hPa16.1 kmWest (260°)5.6 km/hClear
6:53 PM-5 °C-8.3 °C78 %1030.1 hPa16.1 kmCalmClear
7:53 PM-7.2 °C-10 °C81 %1031.2 hPa16.1 kmCalmMostly Cloudy
8:53 PM-5.6 °C-8.3 °C82 %1030.5 hPa16.1 kmCalmOvercast
9:53 PM-6.7 °C-8.9 °C85 %1029.8 hPa16.1 kmCalmMostly Cloudy
10:53 PM-8.3 °C-10.6 °C84 %1029.1 hPa14.5 kmWest (270°)9.3 km/hClear
11:53 PM-9.4 °C-11.7 °C84 %1028.8 hPa16.1 kmNorth (350°)7.4 km/hClear
Hourly data recorded from KVEL, located 0 kilometers away from Dinosaur National Monument, Utah







STORIES FROM OUR PARTNERS